STARLINK-36710, 67971

Orbit data source: Space-Track

STARLINK-36710, 67971 is a payload satellite owned by SpaceX/Seattle (US) in SSO that was launched on Wed, 25 Feb 2026 UTC via an FALCON 9 launch vehicle from the Air Force Western Test Range (AFWTR). Payload-class satellites include a variety of spacecraft equipped with specific instruments for various scientific and technological missions. These include communications satellites like Starlink; space stations such as the ISS; scientific satellites like the Hubble; Earth observation satellites from companies like Planet Labs, Umbra, and HawkEye 360; GPS; miniature CubeSats for education and research; and military/defense satellites.

Loading next visibility...
Identifier
67971, 2026-038L
Orbit
SSO
Country
Flag of USUS
Related business
Manufacturer
SpaceX/Seattle
Mission
Operational Commercial Communications
Bus & Motor
STARLINK V2MO, Unknown motor
Mass
575 kg wet, ~530 kg dry
Launch date (UTC)
2026-02-25 (4 months ago)
Launch vehicle
FALCON 9
Launch site
Air Force Western Test Range (AFWTR)
Object type
Payload
Rocket body
Debris
Shape & HBR
Box + 2 Pan, 17.7 m
Radar Cross Section
36.964 m², Large (>1 m²)

Expand to show TLE details & history
Last TLE update: 21 hours ago

TLE from 21 hours ago
0 STARLINK-36710
1 67971U 26038L   26170.97102347  .00018779  00000-0  58230-3 0  9991
2 67971  97.2832 180.6268 0002626 107.9970 252.1559 15.33457046 18919
Epoch: 2026-06-19T23:18Z
TLE epoch observation values (Epoch: 2026-06-19T23:18:16.427Z)
Latitude
-0.00006°
Longitude
-77.13399°
Altitude
469.171 km
Speed
7.631 km/s
True Right ascension
12h 02m 30s
True Declination
0° 00' 00"
Sunlit
Object was in daylight at epoch
Visualization orbit readout
Latitude
Unknown
Longitude
Unknown
Altitude
Unknown
Speed
Unknown
Apparent Right ascension
Unknown
Apparent Declination
Unknown
Sunlit
N/A
Visualization observer readout
Local Sidereal Time
07:11:51
Azimuth
Unknown
Elevation
Unknown
Doppler factor
Unknown
Orbital elements
Apogee altitude
464.246 km
Perigee altitude
460.654 km
Semi-major axis
6,840.587 km
Eccentricity
0.00026
Inclination
97.2832°
RAAN
180.6268°
Arg. of periapsis
107.997°
True anomaly
252.12726°
Mean anomaly
252.1559°
Eccentric anomaly
252.14158°
Mean motion
3.83622 °/min
Orbital period
93.84 mins
BSTAR
0.0005823
Loading maneuver chart data...
Computing Atmospheric mass density...
Loading historical data...
Loading historical data...
Loading historical data...
Loading historical data...
Loading historical data...
Loading historical data...
Loading historical data...

Documentation

Showing up to 5 results
|